User: anonymous   Login
Location: Theydon Bois
(51.6750°N, 0.1050°E)
Time: 12:51:34
(UTC+00:00)
Language:

Cosmos 1470 - Orbit

View from above orbital plane
View from above orbital plane
View from above satellite
View from above satellite

Ground track
Ground track

The orbit data is extracted from the following two-line orbital elements,

1 14147U 83061A   18016.91421317 -.00000056 +00000-0 -52047-5 0  9995
2 14147 082.4826 189.0804 0014467 244.0000 115.9740 15.10838530636805
Epoch (UTC): 16 January 2018 21:56:28
Eccentricity: 0.0014467
inclination: 82.4826°
perigee height: 523 km
apogee height: 543 km
right ascension of ascending node: 189.0804°
argument of perigee: 244.0000°
revolutions per day: 15.10838530
mean anomaly at epoch: 115.9740°
orbit number at epoch: 63680

The dashed part of the orbit path shows where the satellite is in the earth's shadow,  

DLR